This demonstration page uses our WeatherBlox Daily Observations layout. Learn more.

Left ArrowRight Arrow

39.92423, -83.80882

Hourly Observations for February 28, 2016

Temp ( °F °C ) Dew Point ( °F °C ) Humidity (%) Winds ( mph kmh ) Pressure ( in mb ) Visibility ( mi km ) Precip ( " mm )
12:56 am 00:56 Clear 42 5.5 32 undefined 68 68 SSW 13 20 29.99 1016 10 16 N/A
1:56 am 01:56 Clear 41 5 32 undefined 70 70 SSW 12 19 29.98 1015 10 16 N/A
2:56 am 02:56 Clear 40 4.4 32 undefined 73 73 SSW 12 19 29.97 1015 10 16 N/A
3:56 am 03:56 Clear 40 4.4 32 undefined 73 73 S 14 22 29.95 1014 10 16 N/A
4:56 am 04:56 Clear 40 4.4 33 0.5 76 76 S 15 24 29.95 1014 10 16 N/A
5:56 am 05:56 Clear 41 5 33 0.5 73 73 S 15 24 29.94 1014 10 16 N/A
6:56 am 06:56 Clear 41 5 33 0.5 73 73 S 15 24 29.95 1014 10 16 N/A
7:56 am 07:56 Sunny 42 5.5 34 1.1 74 74 S 14 22 29.93 1014 10 16 N/A
8:56 am 08:56 Sunny 46 7.7 35 1.6 66 66 S 16 26 29.92 1013 10 16 N/A
9:56 am 09:56 Sunny 51 10.5 37 2.7 59 59 SSW 17 28 29.91 1013 10 16 N/A
10:56 am 10:56 Sunny 54 12.2 39 3.8 57 57 S 16 26 29.89 1012 10 16 N/A
11:56 am 11:56 Sunny 58 14.4 39 3.8 49 49 SSW 16 26 29.86 1011 10 16 N/A
12:56 pm 12:56 Sunny 62 16.6 39 3.8 43 43 SSW 22 35 29.81 1010 10 16 N/A
1:56 pm 13:56 Sunny 64 17.7 40 4.4 42 42 S 20 31 29.77 1008 10 16 N/A
2:56 pm 14:56 Sunny 64 17.7 38 3.3 38 38 S 28 44 29.73 1007 10 16 N/A
3:56 pm 15:56 Sunny 64 17.7 37 2.7 37 37 S 23 37 29.70 1006 10 16 N/A
4:56 pm 16:56 Sunny 64 17.7 37 2.7 37 37 S 15 24 29.68 1005 10 16 N/A
5:56 pm 17:56 Sunny 62 16.6 35 1.6 37 37 SSW 26 43 29.68 1005 10 16 N/A
6:56 pm 18:56 Clear 59 15 35 1.6 41 41 S 18 30 29.66 1005 10 16 N/A
7:56 pm 19:56 Mostly Cloudy 58 14.4 35 1.6 42 42 S 15 24 29.68 1005 10 16 N/A
8:56 pm 20:56 Cloudy 58 14.4 34 1.1 41 41 S 21 33 29.65 1004 10 16 N/A
9:56 pm 21:56 Cloudy 58 14.4 34 1.1 41 41 S 22 35 29.64 1004 10 16 N/A
10:56 pm 22:56 Cloudy 58 14.4 37 2.7 46 46 SSW 24 39 29.62 1003 10 16 N/A
11:56 pm 23:56 Cloudy 54 12.2 43 6.1 67 67 SSW 24 39 29.60 1003 10 16 N/A

Powered by AerisWeather